Find Starlink 4202

NORAD ID: 52848 Int'l Des: 2022-062 Owner: SPXS Country: US Constellation: starlink operational
LEOCIRCULAR

現在のビュー

3D地球を読み込み中...

About Starlink 4202

Starlink 4202 (NORAD 52848) is a starlink constellation satellite (v1.5) launched Jun 17, 2022 by SPXS of US. It operates in LEO, CIRCULAR orbit with a mass of 297.00 kg.

Starlink 4202について

説明を読み込み中...

次回通過

Passes for default location (London). Set your location on the main map for personalized predictions.

高度履歴

Loading altitude history...

軌道要素

1 52848U 22062U 26169.74782100 -.00000374 00000-0 -53916-5 0 9997
2 52848 53.1605 300.3454 0001117 83.9840 276.1279 15.08829971221043
Epoch: Jun 18, 2026 • Age: 12 hours

現在のステータス

高度 539.8 km
速度 7.60 km/s
衛星直下点 17.63°N, 110.38°E
打ち上げ日 Jun 17, 2022
運用期間 4 years
タイプ internet

技術仕様

分類 Payload
質量 297.00 kg
乾燥質量 275.00 kg
総質量 297.00 kg
長さ 0.20 m
直径 2.80 m
スパン 9.00 m
形状 Box + pan
製造者 SPXS
バスタイプ Starlink
フェーズステータス In Orbit
所有者/国 SPXS/US

Most Searched